free website hit counter

Jackpot

Texas Poker Multi Jackpot System

Kini Telah hadir Jackpot SUPER ROYAL FLUSH

Kini Telah hadir Jackpot 2000 (khusus table VIP keatas).

Ikutilah global jackpot yang tersedia di system kami, dengan system jackpot terbaru dan pertama di indonesia, anda dapat membeli jackpot dengan harga 100 rupiah saja dan menangkan hadiahnya hingga puluhan juta rupiah.

Jackpot bukanlah suatu keharusan untuk dibeli, namun kami memberikan suatu fitur tambahan untuk member tercinta dari www.668poker.net.

Terdapat tiga pilihan harga jackpot yang bisa anda beli yaitu :100,500,1000 dan 2000(khusus table VIP Keatas) rupiah.

Hadiah dari Multi jackpot system www.668poker.net

  1. full house x 10 harga jackpot yang anda beli.
      (contoh:anda membeli 1000 maka:1000 X10 = 10.000)
  2. four of kind x 250 harga jackpot yang anda beli
      (contoh:anda membeli 1000 maka:1000 X250 = 250.000)
  3. Straight flush x 1200
      (contoh:anda membeli 1000 maka:1000 X1200 = 1.200.000)
  4. Royal flush x 10000 harga jackpot yang anda beli
      (contoh:anda membeli 1000 maka:1000 X10000 = 10.000.000)
  5. SUPER ROYAL FLUSH x 30000 harga jackpot yang anda beli
      (contoh:anda membeli 1000 maka:1000 X30000 = 30.000.000)

Kondisi kartu

  1. full house adalah kondisi kartu dimana kartu anda dan kartu tengah dengan total 7 kartu bisa mendapatkan nilai 5 kartu dengan kombinasi 1 tris(three of kind) dan 1 pair, contoh 3 kartu 10 dan 2 kartu 5
  2. Four of kind adalah kondisi kartu dimana kartu anda dan kartu tengah dengan total 7 kartu bisa mendapatkan nilai 5 kartu dengan kombinasi 4 kartu yang sama jumlah dan 1 kartu apapun juga contoh anda mendapatkan 4 buah kartu angka 3 dan 1 kartu apapun.
  3. Staright flush adalah kondisi kartu dimana kartu anda dan kartu tengah dengan total 7 kartu bisa mendapatkan nilai 5 kartu dengan kombinasi seri / staright dengan kembang yang sama contoh : urutan kartu dari angka 5, 6, 7, 8 , 9 10 dengan kembang yg sama misalnya as hati
  4. Royal flush adalah kondisi kartu dimana kartu anda dan kartu tengah dengan total 7 kartu bisa mendapatkan nilai 5 kartu dengan kombinasi seri / staright dengan kembang yang sama tetapi kartu tersebut haruslah dimulai dari 10. contoh 10, Queen, Jack, King dan aces dengan kembang yang sama
  5. Super Royal flush adalah kondisi kartu dimana Kedua kartu anda digabung dengan 3 kartu pertama meja haruslah royal flush. contoh kartu anda 10,Queen kembang sama dan 3 kartu pertama meja adalah Jack, King dan aces dengan kembang yang sama

Demikian adalah penjelasan dari Multi Jackpot www.668poker.net terima kasih dan selamat bermain salam hoki dari kami

Texas Poker Jackpot Winner

TOP SUPER ROYAL FLUSH
No.TanggalNamaPriceWin
117/12 18:23LAI5Super Royal flush3,000,000
217/12 16:37SIBROT18Super Royal flush15,000,000
317/12 15:11DESPASITTOSuper Royal flush1,500,000
417/12 01:51ZOMBY89Super Royal flush15,000,000
517/12 01:44SON_GOKU_SSuper Royal flush30,000,000
TOP ROYAL FLUSH
No.TanggalNamaPriceWin
117/12 18:52ARDIJIHRoyal flush2,000,000
217/12 18:08ANFAL212Royal flush1,000,000
317/12 18:05MBAHSENGITRoyal flush1,000,000
417/12 17:55KURAW7777Royal flush10,000,000
517/12 17:23BELMEH00Royal flush1,000,000
TOP STRAIGHT FLUSH
No.TanggalNamaPriceWin
117/12 19:05GERDOStraight Flush1,200,000
217/12 19:05JENGRYBOBStraight Flush600,000
317/12 19:04GASZ6S974NStraight Flush120,000
417/12 19:03T535YAStraight Flush120,000
517/12 19:00RHN77Straight Flush120,000
LATEST JACKPOT
No.TanggalNamaPriceWin
117/12 19:07OTOY989Full House1,000
217/12 19:07F1119Full House20,000
317/12 19:07DE172FD3Full House2,000
417/12 19:07BXDNLEOQ9JFull House5,000
517/12 19:07EL8899999Full House5,000
617/12 19:07SAHUDDINFull House1,000
717/12 19:07RPG2Full House10,000
817/12 19:07AFRIAN5656Full House500
917/12 19:07KUSDIANT99Full House1,000
1017/12 19:07B7984BD4Full House2,000
1117/12 19:07TURBO93Full House2,000
1217/12 19:07SABIANBOYFour Of A Kind25,000
1317/12 19:07SANURI21Full House2,000
1417/12 19:07HOKKY1909Full House2,000
1517/12 19:07APRIAL15Full House10,000
1617/12 19:07DEDEBODONGFour Of A Kind50,000
1717/12 19:07FAYAKUNNFull House1,000
1817/12 19:07SGM111Full House2,000
1917/12 19:07ZINAR1708Full House5,000
2017/12 19:07SANDRI123Full House20,000
2117/12 19:07D44JALFull House1,000
2217/12 19:07E4ACF06AFull House2,000
2317/12 19:07XWCNFour Of A Kind125,000
2417/12 19:07MYNAMEISMEFull House10,000
2517/12 19:07METUO_ASFull House10,000
2617/12 19:07KANTALAN69Full House5,000
2717/12 19:07XPOR85Full House5,000
2817/12 19:07J4RWO10Full House1,000
2917/12 19:07MENAGANNFull House1,000
3017/12 19:07DODIT45Full House5,000
3117/12 19:07REF4NGG4Full House5,000
3217/12 19:07NURDI272Full House2,000
3317/12 19:07C874B8ACFull House5,000
3417/12 19:07ADS98Full House2,000
3517/12 19:07MUKATEMPEHFull House5,000
3617/12 19:07CECEL100Four Of A Kind25,000
3717/12 19:07UK27CFNXAHFull House5,000
3817/12 19:07Z1UDNCKAL8Full House1,000
3917/12 19:07VV_889Full House2,000
4017/12 19:07LLM2708Full House2,000
4117/12 19:07APES91Full House2,000
4217/12 19:07ACESURYOFull House1,000
4317/12 19:07EMPAHFour Of A Kind125,000
4417/12 19:07EDINAGA212Full House2,000
4517/12 19:07JEJER808Full House1,000
4617/12 19:07YUHFull House2,000
4717/12 19:07BABURAFull House1,000
4817/12 19:07YAREEKKKFull House2,000
4917/12 19:07CIKALKA5Full House2,000
5017/12 19:06LAYA085Four Of A Kind25,000

Domino Multi Jackpot System

Ikutilah global jackpot yang tersedia di system kami, dengan system jackpot terbaru dan pertama di indonesia, anda dapat membeli jackpot dengan harga 100 rupiah saja dan menangkan hadiahnya hingga puluhan juta rupiah.

Jackpot bukanlah suatu keharusan untuk dibeli, namun kami memberikan suatu fitur tambahan untuk member tercinta dari www.668poker.net.

Terdapat tiga pilihan harga jackpot yang bisa anda beli yaitu :100,500 dan 1000 rupiah.

Hadiah dari Multi jackpot system www.668poker.net

  1. Murni Kecil x 50 harga jackpot yang anda beli.
      (contoh:anda membeli 1000 maka:1000 X 50 = 50.000)
  2. Murni Besar x 50 harga jackpot yang anda beli
      (contoh:anda membeli 1000 maka:1000 X 50 = 50.000)
  3. BALAK x 100 harga jackpot yang anda beli
      (contoh:anda membeli 1000 maka:1000 X 100 = 100.000)
  4. ENAM DEWA x 6666 harga jackpot yang anda beli
      (contoh:anda membeli 1000 maka:1000 X 6666 = 6.666.000)

Demikian adalah penjelasan dari Multi Jackpot www.668poker.net terima kasih dan selamat bermain salam hoki dari kami

Domino Jackpot Winner

TOP ENAM DEWA
No.TanggalNamaPriceWin
117/12 18:03RIZAL1986murni enam6,666,000
217/12 17:47ANDIYAYA96murni enam6,666,000
317/12 16:23XGAJNEUOQVmurni enam6,666,000
417/12 14:44A3444AABmurni enam6,666,000
517/12 11:47T4DMENIR99murni enam3,333,000
TOP BALAK
No.TanggalNamaPriceWin
117/12 18:58IWNR29balak50,000
217/12 18:52CIDORI12balak50,000
317/12 18:52RATTIH99balak100,000
417/12 18:48W4NB0Ybalak50,000
517/12 18:46MENEHAW1balak10,000
LATEST JACKPOT
No.TanggalNamaPriceWin
117/12 19:07RINTO90murni kecil25,000
217/12 19:06T4DBOLED88murni besar25,000
317/12 19:05SELLONEmurni besar50,000
417/12 19:05GIRIAP17murni kecil50,000
517/12 19:04AL1377murni besar25,000
617/12 19:04BENJANI11murni kecil25,000
717/12 19:03BM1658murni besar50,000
817/12 19:03ODER007lucky9910,000
917/12 19:03PAC3murni besar50,000
1017/12 19:03PURWAN00murni besar50,000
1117/12 19:02UPAYE45murni kecil25,000
1217/12 19:02DERUM99murni besar5,000
1317/12 19:00SOENJUMlucky9910,000
1417/12 18:59ACHMADI99murni kecil50,000
1517/12 18:59RISNAWT11murni besar5,000
1617/12 18:59SP_18murni kecil25,000
1717/12 18:58IWNR29balak50,000
1817/12 18:56BAGU51murni kecil5,000
1917/12 18:55BOMERANG_murni kecil25,000
2017/12 18:55LB881007murni kecil5,000
2117/12 18:52ANGGR43murni kecil5,000
2217/12 18:52CIDORI12balak50,000
2317/12 18:52MERO09murni besar5,000
2417/12 18:52BAGU51murni kecil5,000
2517/12 18:52ARAFAHSUL9murni kecil50,000
2617/12 18:52RATTIH99balak100,000
2717/12 18:51KLINCI666lucky992,500
2817/12 18:50LYBAS2108murni besar50,000
2917/12 18:50SUMEK11murni besar5,000
3017/12 18:50TAHU8888murni besar5,000
3117/12 18:50DANZ2711murni besar5,000
3217/12 18:49MAYZADAmurni kecil25,000
3317/12 18:49IMENZ017murni kecil25,000
3417/12 18:48MONIKA76murni kecil25,000
3517/12 18:48DOA__IBUmurni kecil50,000
3617/12 18:48W4NB0Ybalak50,000
3717/12 18:47SNI28540murni kecil5,000
3817/12 18:47RH4848murni besar50,000
3917/12 18:46MENTENG123murni besar5,000
4017/12 18:46OBRALANmurni kecil50,000
4117/12 18:46MENEHAW1balak10,000
4217/12 18:46CEME7788murni besar50,000
4317/12 18:45DNAIDITPKImurni kecil50,000
4417/12 18:44JAC64Xmurni kecil50,000
4517/12 18:44JL8TJCOTKBmurni besar25,000
4617/12 18:44SIPREN99lucky9950,000
4717/12 18:43HERNITA89murni kecil50,000
4817/12 18:43MENEHAW1murni besar5,000
4917/12 18:43GAPLES00murni besar5,000
5017/12 18:42KOEY14murni besar25,000

Ceme Multi Jackpot System

Jackpot dilihat dari gabungan kartu pemain dengan kartu bandar. Bandar harus membeli jackpot sebanyak jumlah player yang sedang duduk. Sebagai contoh bila terdapat 3 pemain duduk bermain, dan bandar memutuskan untuk membeli jackpot Rp 1.000, maka pada periode tersebut bandar akan membeli jackpot sebanyak 3xRp1.000 = Rp3.000.

Jackpot bukanlah suatu keharusan untuk dibeli, namun kami memberikan suatu fitur tambahan untuk member tercinta dari www.668poker.net.

Terdapat tiga pilihan harga jackpot yang bisa anda beli yaitu :100,500 dan 1000 rupiah.

Hadiah dari Multi jackpot system www.668poker.net

  1. Murni Kecil x 50 harga jackpot yang anda beli.
      (contoh:anda membeli 1000 maka:1000 X 50 = 50.000)
  2. Murni Besar x 50 harga jackpot yang anda beli
      (contoh:anda membeli 1000 maka:1000 X 50 = 50.000)
  3. BALAK x 200 harga jackpot yang anda beli
      (contoh:anda membeli 1000 maka:1000 X 200 = 200.000)
  4. ENAM DEWA x 6666 harga jackpot yang anda beli
      (contoh:anda membeli 1000 maka:1000 X 6666 = 6.666.000)

Demikian adalah penjelasan dari Multi Jackpot www.668poker.net terima kasih dan selamat bermain salam hoki dari kami

Ceme Jackpot Winner

TOP ENAM DEWA
No.TanggalNamaPriceWin
117/12 18:40BEBAYAU17murni enam3,333,000
217/12 18:24HELOHOKI79murni enam6,666,000
317/12 18:22ZAMRIEmurni enam6,666,000
417/12 18:22SUTRI456murni enam666,600
517/12 18:01CAMILA_9murni enam3,333,000
TOP BALAK
No.TanggalNamaPriceWin
117/12 19:07BUM338balak100,000
217/12 19:07SANTAK00balak100,000
317/12 19:06J53RON9JT3balak100,000
417/12 19:05KENARIBOLEbalak200,000
517/12 19:05BHADRY_Nbalak200,000
LATEST JACKPOT
No.TanggalNamaPriceWin
117/12 19:07COVIENOBISmurni kecil50,000
217/12 19:07BUM338balak100,000
317/12 19:07BEGENK08murni besar50,000
417/12 19:07PANAD0LLmurni kecil50,000
517/12 19:07PARAW3Hmurni kecil25,000
617/12 19:07GOEFANI123murni besar50,000
717/12 19:07PANSER32murni besar50,000
817/12 19:07JTY23murni kecil50,000
917/12 19:07ZALI62murni kecil50,000
1017/12 19:07SANTAK00balak100,000
1117/12 19:06AAKHAFAS89murni besar50,000
1217/12 19:06PANTAR84murni besar50,000
1317/12 19:06BEDENG006murni besar50,000
1417/12 19:06AAAALACH70murni kecil50,000
1517/12 19:06VHENTILmurni kecil25,000
1617/12 19:06MATTALIUmurni besar5,000
1717/12 19:06YINGXIU14murni kecil5,000
1817/12 19:06YINGXIU14murni kecil5,000
1917/12 19:06MOSKOV99murni kecil50,000
2017/12 19:06CHANPATTIMmurni kecil50,000
2117/12 19:06J53RON9JT3balak100,000
2217/12 19:06BRECKHELEmurni kecil25,000
2317/12 19:06EDISIGIAmurni kecil5,000
2417/12 19:05MELESETmurni besar50,000
2517/12 19:05SAHRA3344murni besar50,000
2617/12 19:05SEKAR_24murni besar50,000
2717/12 19:05ASEP_08murni kecil50,000
2817/12 19:05KENARIBOLEbalak200,000
2917/12 19:05ZAMRIEmurni besar50,000
3017/12 19:05WALES123murni besar50,000
3117/12 19:05TOMPO79murni kecil50,000
3217/12 19:05SZW8L3LCI4murni kecil25,000
3317/12 19:05BHADRY_Nbalak200,000
3417/12 19:05AAAALACH70murni kecil25,000
3517/12 19:05YKB88303murni kecil50,000
3617/12 19:05SOEPIX123murni kecil25,000
3717/12 19:05STEVVEN88balak200,000
3817/12 19:05CUEENGmurni besar50,000
3917/12 19:04BEBEGIH20balak200,000
4017/12 19:04BERENG8686balak200,000
4117/12 19:04KENARIBOLEmurni kecil50,000
4217/12 19:04IRFAN067murni kecil50,000
4317/12 19:04ENOLQQbalak100,000
4417/12 19:04DADU9900balak200,000
4517/12 19:04THAIPROmurni besar5,000
4617/12 19:04ZICKYmurni besar50,000
4717/12 19:04BGP87murni kecil50,000
4817/12 19:03IDK88183murni besar50,000
4917/12 19:03SCOUPEmurni besar50,000
5017/12 19:03JEFF38murni kecil5,000